Miscellaneous Local Product
Issued by NWS Hastings, NE

Home | Current Version | Previous Version | Graphics & Text | Print | Product List | Glossary On
Versions: 1 2 3 4 5 6 7 8 9 10 11 12 13 14 15 16 17 18 19 20 21 22 23 24 25 26 27 28 29 30 31 32 33 34 35 36 37 38 39 40 41 42 43 44 45 46 47 48 49 50
000
AXUS43 KGID 230302
MISGRI

GID CWA HOURLY WEATHER ROUNDUP
NATIONAL WEATHER SERVICE HASTINGS NE
900 PM CST MON JAN 22 2018

NOTE: "FAIR" INDICATES FEW OR NO CLOUDS BELOW 12,000 FEET WITH NO
SIGNIFICANT WEATHER AND/OR OBSTRUCTIONS TO VISIBILITY.

...SOUTH CENTRAL NEBRASKA...

CITY           SKY/WX    TMP DP  RH WIND       PRES   REMARKS
GRAND ISLAND   CLEAR     24  21  88 N21       29.93R WCI   9
KEARNEY        CLOUDY    26  21  81 NW14      29.96R WCI  14
HASTINGS       CLOUDY    26  20  77 NW21G28   29.93R WCI  12
ORD            PTCLDY    25  20  81 N15       29.95R WCI  13
YORK           LGT SNOW  25  25 100 N16G26    29.91R WCI  12
AURORA         CLOUDY    23  21  93 N21       29.92R WCI   8
LEXINGTON      CLEAR     22  16  78 W13       30.00R WCI  10
HOLDREGE       CLEAR     26  22  82 NW12      29.97R WCI  16
HEBRON         CLOUDY    28  23  82 N15G21    29.93R WCI  16

...NEBRASKA PANHANDLE...

CITY           SKY/WX    TMP DP  RH WIND       PRES   REMARKS
CHADRON        PTCLDY    18  12  77 SW10      30.07R WCI   6
ALLIANCE       CLEAR     19  11  70 NW10      30.04S WCI   7
SCOTTSBLUFF    CLEAR     22  14  71 NW14      30.08R WCI   9
SIDNEY         CLEAR     19  12  74 NW17      30.06R WCI   4

...WESTERN AND NORTH CENTRAL NEBRASKA...

CITY           SKY/WX    TMP DP  RH WIND       PRES   REMARKS
VALENTINE      CLEAR     20  15  81 W12       30.00S WCI   8
AINSWORTH      CLEAR     18  16  93 NW7       29.99R WCI   8
ONEILL         CLOUDY    23  22  98 N18       29.97R WCI   9
BROKEN BOW     CLEAR     26  18  71 NW21G29   29.96S WCI  12
IMPERIAL       CLEAR     25  16  68 NW16      30.05S WCI  12
NORTH PLATTE   CLEAR     21  12  68 W15       30.03R WCI   8
MCCOOK         CLEAR     24  16  71 NW15      30.04R WCI  11

...EASTERN NEBRASKA...

CITY           SKY/WX    TMP DP  RH WIND       PRES   REMARKS
NORFOLK        CLOUDY    24  21  88 N21G32    29.90R BLWGSNOWWCI   9
SO SIOUX CITY  LGT SNOW  28  26  92 N24G37    29.84R FOG     WCI  14
TEKAMAH        LGT SNOW  29  28  96 NW31G39   29.83R FOG     WCI  13
COLUMBUS       LGT SNOW  23  22  96 NW24G35   29.90R FOG     WCI   7
ALBION         LGT SNOW  25  22  88 N26G33    29.93R WCI   9
OMAHA EPPLEY   LGT SNOW  30  27  88 NW26G37   29.81R BLWGSNOWWCI  16
OFFUTT AFB     FLURRIES  30  26  85 NW20G29   29.79R WCI  17
MILLARD        CLOUDY    31  28  86 NW20G29   29.82R FOG     WCI  19
LINCOLN        CLOUDY    26  22  84 NW22G36   29.88R WCI  12
NEBRASKA CITY  LGT SNOW  29  29 100 NW25G32   29.79R WCI  15
BEATRICE       CLOUDY    28  25  89 NW25G35   29.89R WCI  13
FALLS CITY     FLURRIES  29  25  85 NW25G36   29.77R WCI  14

...NORTHERN KANSAS...

CITY           SKY/WX    TMP DP  RH WIND       PRES   REMARKS
GOODLAND       CLEAR     17  11  77 W15       30.07R WCI   2
HILL CITY      CLEAR     29  20  69 NW15      30.02R WCI  18
NORTON         CLEAR     25  16  68 W18       30.01R WCI  11
PHILLIPSBURG   CLEAR     30  21  69 NW9       30.01R WCI  22
SMITH CENTER   CLEAR     27  21  80 NW13G20   29.98R WCI  16
HAYS           CLEAR     29  22  75 NW15      30.03R WCI  18
RUSSELL        CLEAR     31  24  75 NW17      30.00R WCI  19
CONCORDIA      PTCLDY    31  24  75 NW16G22   29.93R WCI  20
SALINA         CLEAR     35  26  69 NW22      29.94R WCI  23
TOPEKA         LGT SNOW  31  28  89 NW21G28   29.82R FOG     WCI  18



USA.gov is the U.S. government's official web portal to all federal, state and local government web resources and services.